Friday Harbor, WA
on Tuesday, November 20, 2012

Tuesday
Previous Day Next Day
Daily Summary
 ActualAverageRecord
Temperature
Mean Temperature °F °F  
Max Temperature 51°F 46°F 57°F (2002)
Min Temperature 43°F 38°F 25°F (2011)
Degree Days
Heating Degree Days 18    
Moisture
Dew Point 44°F   
Average Humidity 88    
Maximum Humidity 100    
Minimum Humidity 74    
Precipitation
Precipitation 0.00 in in in ()
Wind
Wind Speed 7 mph   
Max Wind Speed 26 mph   
Max Gust Speed 37 mph   
Visibility 10 miles   
Events     
Averages and records for this station are not official NWS values.
Key: T is trace of precipitation, MM is missing value
Source: NWS Daily Summary
Seasonal Weather Averages
Time(PST)TemperatureDew PointHumidity Pressure Visibility Wind DirectionWind SpeedGust SpeedPrecipitationEvents Conditions
12:36 AM 46.4°F 44.6°F 93% 29.66 in 10.0 miles Calm Calm - 0.00 in   Overcast
12:53 AM 46.0°F 44.1°F 93% 29.67 in 10.0 miles WNW 3.5 mph - 0.00 in   Overcast
1:53 AM 46.0°F 45.0°F 96% 29.67 in 10.0 miles Calm Calm - N/A   Overcast
2:35 AM 44.6°F 44.6°F 100% 29.66 in 10.0 miles North 3.5 mph - N/A   Mostly Cloudy
2:48 AM 46.4°F 44.6°F 93% 29.66 in 10.0 miles NE 3.5 mph - N/A   Mostly Cloudy
2:53 AM 46.0°F 45.0°F 96% 29.66 in 10.0 miles Calm Calm - N/A   Mostly Cloudy
3:37 AM 46.4°F 44.6°F 93% 29.65 in 10.0 miles East 3.5 mph - N/A   Overcast
3:53 AM 46.9°F 44.1°F 90% 29.64 in 10.0 miles ENE 5.8 mph - N/A   Overcast
4:49 AM 46.4°F 44.6°F 93% 29.63 in 10.0 miles ESE 9.2 mph - N/A   Scattered Clouds
4:50 AM 46.9°F 44.1°F 90% 29.63 in 10.0 miles ESE 8.1 mph - N/A   Scattered Clouds
5:05 AM 46.4°F 44.6°F 93% 29.63 in 10.0 miles East 5.8 mph - N/A   Mostly Cloudy
5:12 AM 46.4°F 44.6°F 93% 29.62 in 10.0 miles East 5.8 mph - N/A   Partly Cloudy
5:36 AM 48.2°F 44.6°F 87% 29.63 in 10.0 miles ESE 6.9 mph - N/A   Mostly Cloudy
5:53 AM 48.0°F 45.0°F 89% 29.63 in 10.0 miles East 5.8 mph - N/A   Overcast
6:34 AM 48.2°F 44.6°F 87% 29.60 in 10.0 miles East 6.9 mph - N/A   Mostly Cloudy
6:50 AM 48.2°F 44.6°F 87% 29.60 in 10.0 miles East 8.1 mph - N/A   Mostly Cloudy
6:53 AM 48.0°F 45.0°F 89% 29.60 in 10.0 miles East 9.2 mph - N/A   Overcast
7:39 AM 48.2°F 44.6°F 87% 29.57 in 10.0 miles SE 15.0 mph 24.2 mph N/A   Mostly Cloudy
7:53 AM 48.9°F 44.1°F 83% 29.57 in 10.0 miles ESE 15.0 mph - N/A   Partly Cloudy
8:53 AM 50.0°F 44.1°F 80% 29.52 in 10.0 miles ESE 18.4 mph 25.3 mph N/A   Clear
9:53 AM 50.0°F 44.1°F 80% 29.49 in 10.0 miles ESE 19.6 mph 31.1 mph N/A   Clear
10:53 AM 50.0°F 43.0°F 77% 29.48 in 10.0 miles ESE 17.3 mph 26.5 mph N/A   Mostly Cloudy
11:53 AM 50.0°F 43.0°F 77% 29.47 in 10.0 miles ESE 19.6 mph 27.6 mph N/A   Overcast
12:53 PM 51.1°F 43.0°F 74% 29.47 in 10.0 miles ESE 25.3 mph 35.7 mph N/A   Scattered Clouds
1:10 PM 50.0°F 42.8°F 76% 29.47 in 10.0 miles ESE 26.5 mph 36.8 mph N/A   Mostly Cloudy
1:53 PM 50.0°F 45.0°F 83% 29.48 in 10.0 miles SE 18.4 mph 33.4 mph 0.00 in   Partly Cloudy
2:53 PM 51.1°F 44.1°F 77% 29.52 in 10.0 miles SSE 10.4 mph 18.4 mph N/A   Mostly Cloudy
10:53 PM 43.0°F 41.0°F 93% 29.62 in 10.0 miles North 3.5 mph - N/A   Overcast
11:53 PM 44.1°F 42.1°F 93% 29.59 in 10.0 miles NNE 4.6 mph - 0.00 in   Overcast
Moon Phase
Nov. 20 Nov. 28 Dec. 06 Dec. 13 Dec. 20
Sunrise:07:28 AM (PST) Moon Rise:12:47 PM (PST)11/20
Sunset:04:26 PM (PST) Moon Set:No Moon Set/

Copyright © 2014 The Weather Underground, Inc.